Terminal Aerodrome Forecast
Issued by NWS Cleveland, OH

Home | Current Version | Previous Version | Graphics & Text | Print | Product List | Glossary On
Versions: 1 2 3 4 5 6 7 8 9 10 11 12 13 14 15 16 17
046
FTUS41 KCLE 151857 AAA
TAFMFD
TAF AMD
KMFD 151857Z 1519/1618 28015G32KT P6SM VCSH SCT025 OVC040
     FM152000 28018G32KT P6SM SCT015 OVC022
     FM160400 32010KT P6SM OVC015
     FM161100 30008KT P6SM BKN025 OVC035=

USA.gov is the U.S. government's official web portal to all federal, state and local government web resources and services.